{"data":{"norad_id":53207,"epoch":"2026-09-19T22:20:52.618848Z","epoch_age_seconds":121354,"freshness":"FRESH","line1":"1 53207U 22084U   26262.93116457  .00001275  00000+0  41826-4 0  9996","line2":"2 53207  97.2845 317.7439 0001358 104.4826 255.6568 15.33437392228605","mean_motion":15.33437392,"eccentricity":0.0001358,"inclination_deg":97.2845,"raan_deg":317.7439,"arg_perigee_deg":104.4826,"mean_anomaly_deg":255.6568,"bstar":4.1826e-5,"rev_number":22860,"period_min":93.906670563307,"perigee_km":464.63643578535,"apogee_km":466.49518546872,"semimajor_km":6843.702810627,"source":"CELESTRAK","updated_at":"2026-09-20T09:00:40.192220Z"}}